STARLINK-33657, 63370

Orbit data source: Space-Track

STARLINK-33657, 63370 is a payload satellite owned by SpaceX/Seattle (US) in LEO that was launched on Wed, 26 Mar 2025 UTC via an FALCON 9 launch vehicle from the Air Force Western Test Range (AFWTR). Payload-class satellites include a variety of spacecraft equipped with specific instruments for various scientific and technological missions. These include communications satellites like Starlink; space stations such as the ISS; scientific satellites like the Hubble; Earth observation satellites from companies like Planet Labs, Umbra, and HawkEye 360; GPS; miniature CubeSats for education and research; and military/defense satellites.

Loading next visibility...
Identifier
63370, 2025-063H
Orbit
LEO
Country
Flag of USUS
Related business
Manufacturer
SpaceX/Seattle
Mission
Operational Commercial Communications
Bus & Motor
STARLINK V2MO, Unknown motor
Mass
575 kg wet, ~530 kg dry
Launch date (UTC)
2025-03-26 (1 year ago)
Launch vehicle
FALCON 9
Launch site
Air Force Western Test Range (AFWTR)
Object type
Payload
Rocket body
Debris
Shape & HBR
Box + 2 Pan, 17.7 m
Radar Cross Section
36.964 m², Large (>1 m²)

Expand to show TLE details & history
Last TLE update: 11 hours ago

TLE from 11 hours ago
0 STARLINK-33657
1 63370U 25063H   26171.37340778  .00040923  00000-0  12155-2 0  9995
2 63370  53.1580 292.4686 0002694 118.2818 241.8457 15.34403949 70471
Epoch: 2026-06-20T08:57Z
TLE epoch observation values (Epoch: 2026-06-20T08:57:42.432Z)
Latitude
0.00002°
Longitude
-110.54715°
Altitude
464.463 km
Speed
7.635 km/s
True Right ascension
19h 29m 52s
True Declination
0° 00' 00"
Sunlit
Object was in full shadow at epoch
Visualization orbit readout
Latitude
Unknown
Longitude
Unknown
Altitude
Unknown
Speed
Unknown
Apparent Right ascension
Unknown
Apparent Declination
Unknown
Sunlit
N/A
Visualization observer readout
Local Sidereal Time
07:13:21
Azimuth
Unknown
Elevation
Unknown
Doppler factor
Unknown
Orbital elements
Apogee altitude
464.792 km
Perigee altitude
461.106 km
Semi-major axis
6,841.086 km
Eccentricity
0.00027
Inclination
53.158°
RAAN
292.4686°
Arg. of periapsis
118.2818°
True anomaly
241.81849°
Mean anomaly
241.8457°
Eccentric anomaly
241.83209°
Mean motion
3.8358 °/min
Orbital period
93.85 mins
BSTAR
0.0012155
Loading maneuver chart data...
Computing Atmospheric mass density...
Loading historical data...
Loading historical data...
Loading historical data...
Loading historical data...
Loading historical data...
Loading historical data...
Loading historical data...

Documentation

Showing up to 5 results
|